CARBONITE 1 (CBNT-1)
Last updated on Mon Jun 22 2026 00:02:51 GMT+0000 (Coordinated Universal Time)
1 40718U 15032D 26172.49901785 .00000776 00000+0 10020-3 0 9997
2 40718 97.6513 350.3842 0013047 282.3309 77.6445 14.83595427589980
Next 0 passes for location: London (51.5072 / 0.1276)
No passes found over London.